Flag for Germany Weather past 2 weeks in Riesa, Saxony, Germany

Now
42 °F

Light rain. Overcast.


Feels Like: 40 °F
Forecast: 44 / 54 °F
Wind: 5 mph from South

Location: Dresden-Klotzsche

Current Time: Mar 29, 2015 at 12:54:04 AM

Latest Report: Mar 29, 2015 at 12:00 AM


Visibility: 19 mi

Pressure: 29.92 "Hg

Humidity: 73%

Dew point: 34 °F

Location of RiesaLocation

Historic Weather in Riesa — Graph

°F

Riesa temperature yesterday

Maximum temperature yesterday: 47 °F (at 5:00 PM)
Minimum temperature yesterday: 40 °F (at 7:00 AM)
Average temperature yesterday: 43 °F

Past Weeks' High & Low Weather Summary

 TemperatureHumidityPressure
High64 °F (Mar 25, 3:00 PM)99% (Mar 27, 12:00 AM)30.43 "Hg (Mar 27, 12:00 AM)
Low26 °F (Mar 23, 3:00 AM)26% (Mar 19, 4:00 PM)29.62 "Hg (Mar 26, 2:00 AM)
Average43 °F71%30.14 "Hg
* Reported Mar 13 11:00 PM — Mar 28 11:00 PM, Riesa, Weather by CustomWeather, © 2015

Note: Actual official high and low records may vary slightly from our data, if they occured in-between our weather recording intervals... More about our weather records

Advertising

Riesa weather history for previous 24 hours

 ConditionsComfort  
Time TempWeatherWind HumidityBarometerVisibility
11:00 PM
Sat, Mar 28
43 °FOvercast.6 mph61%29.94 "Hg22 mi
9:00 PM42 °FOvercast.5 mph62%29.98 "Hg25 mi
8:00 PM42 °FPassing clouds.5 mph63%30.00 "Hg25 mi
7:00 PM43 °FPassing clouds.5 mph63%30.01 "Hg25 mi
6:00 PM46 °FPassing clouds.2 mph53%30.02 "Hg25 mi
5:00 PM47 °FPassing clouds.2 mph50%30.03 "Hg25 mi
3:00 PM47 °FPartly sunny.3 mph52%30.09 "Hg22 mi
2:00 PM47 °FOvercast.5 mph53%30.11 "Hg17 mi
1:00 PM45 °FOvercast.5 mph66%30.14 "Hg14 mi
12:00 PM44 °FOvercast.6 mph70%30.16 "Hg14 mi
11:00 AM45 °FOvercast.5 mph71%30.17 "Hg12 mi
9:00 AM42 °FOvercast.6 mph80%30.19 "Hg11 mi
8:00 AM41 °FOvercast.6 mph83%30.19 "Hg10 mi
7:00 AM40 °FOvercast.5 mph82%30.19 "Hg9 mi
6:00 AM40 °FOvercast.6 mph82%30.17 "Hg9 mi
5:00 AM40 °FOvercast.7 mph83%30.16 "Hg11 mi
3:00 AM41 °FOvercast.7 mph84%30.15 "Hg14 mi
2:00 AM41 °FOvercast.8 mph86%30.14 "Hg11 mi
1:00 AM42 °FRain. Overcast.7 mph86%30.13 "Hg10 mi
12:00 AM42 °FRain. Low clouds.9 mph83%30.13 "Hg11 mi
Weather by CustomWeather, © 2015

See weather overviewHow to use our weather pages